{"data":{"norad_id":60403,"intl_designator":"2024-141F","name":"STARLINK-11158 [DTC]","alt_names":[],"object_type":"PAYLOAD","status":"ACTIVE","operator":null,"country":"US","launch_date":"2024-08-10","launch_site_code":"AFETR","launch_vehicle":null,"mission":null,"orbit_class":"UNKNOWN","rcs_meters":null,"size_class":null,"mass_kg":null,"dimensions":null,"purposes":["comms"],"wikipedia_slug":null,"has_3d_model":false,"image_url":null,"decayed_at":null,"tle_current":{"epoch":"2026-09-21T06:05:19.478688Z","epoch_age_seconds":120438,"freshness":"FRESH","line1":"1 60403U 24141F   26264.25369767  .00002178  00000+0  22822-4 0  9997","line2":"2 60403  53.1613 202.5519 0001498  88.9348 271.1842 15.69725319122402","mean_motion":15.69725319,"eccentricity":0.0001498,"inclination_deg":53.1613,"raan_deg":202.5519,"arg_perigee_deg":88.9348,"mean_anomaly_deg":271.1842,"bstar":2.2822e-5,"rev_number":12240,"period_min":91.735794955347,"perigee_km":358.67358823902,"apogee_km":360.69223908516,"semimajor_km":6737.8199136621,"source":"CELESTRAK","updated_at":"2026-09-22T09:00:49.229724Z"}}}